HK4RAU-60 Weather Reports


time (UTC)temp
C
wind
direction
speed
KPH
gust
KPH
rain 1hr
cm
rain 24hr
cm
rain mn
cm
humidity
%
barometer
mb
20260507140544 23 130 9.7 0.0 0.00 0.00 0.00 65 1016.0
20260507140238 19 0 1.6 0.0 0.00 0.00 0.00 57 1016.0
20260507135928 21 0 1.6 0.0 0.00 0.00 0.00 57 1016.0
20260507135624 19 0 1.6 0.0 0.00 0.00 0.00 57 1016.0
20260507135317 21 0 1.6 0.0 0.00 0.00 0.00 57 1016.0
20260507135011 21 0 1.6 0.0 0.00 0.00 0.00 57 1016.0
20260507134704 23 0 1.6 0.0 0.00 0.00 0.00 57 1016.0
20260507134358 19 0 1.6 0.0 0.00 0.00 0.00 57 1016.0
20260507134057 23 0 1.6 0.0 0.00 0.00 0.00 57 1016.0
20260507133745 19 0 1.6 0.0 0.00 0.00 0.00 57 1016.0
20260507133439 21 0 1.6 0.0 0.00 0.00 0.00 57 1016.0
20260507133132 21 0 1.6 0.0 0.00 0.00 0.00 57 1016.0
20260507132826 23 0 1.6 0.0 0.00 0.00 0.00 57 1016.0
20260507132519 19 0 1.6 0.0 0.00 0.00 0.00 57 1016.0
20260507132208 21 0 1.6 0.0 0.00 0.00 0.00 57 1016.0
20260507131856 21 0 1.6 0.0 0.00 0.00 0.00 57 1016.0
20260507131545 21 0 1.6 0.0 0.00 0.00 0.00 57 1016.0
20260507131242 21 0 1.6 0.0 0.00 0.00 0.00 57 1016.0
20260507130941 23 0 1.6 0.0 0.00 0.00 0.00 57 1016.0
20260507130639 17 164 4.8 3.2 0.00 0.00 0.00 76 1016.0
20260507130332 17 164 4.8 3.2 0.00 0.00 0.00 76 1016.0
20260507130025 17 164 4.8 3.2 0.00 0.00 0.00 76 1016.0
20260507125723 17 164 4.8 3.2 0.00 0.00 0.00 76 1016.0
20260507125417 17 164 4.8 3.2 0.00 0.00 0.00 77 1016.0
20260507125111 17 164 4.8 3.2 0.00 0.00 0.00 76 1016.0
20260507124809 17 164 4.8 3.2 0.00 0.00 0.00 77 1016.0
20260507124508 17 164 4.8 3.2 0.00 0.00 0.00 77 1016.0
20260507124206 17 164 4.8 3.2 0.00 0.00 0.00 77 1016.0
20260507123855 17 164 4.8 3.2 0.00 0.00 0.00 77 1016.0
20260507123548 17 164 4.8 3.2 0.00 0.00 0.00 77 1016.0
20260507122724 16 311 3.2 3.2 0.00 0.00 0.00 80 1016.0
20260507122417 16 311 3.2 3.2 0.00 0.00 0.00 80 1016.0
20260507122111 16 311 3.2 3.2 0.00 0.00 0.00 78 1016.0
20260507121141 16 311 3.2 3.2 0.00 0.00 0.00 78 1016.0
20260507120355 17 260 6.4 0.0 0.00 0.00 0.00 77 1016.0
20260507120043 17 260 6.4 0.0 0.00 0.00 0.00 77 1016.0
20260507115735 17 260 6.4 0.0 0.00 0.00 0.00 77 1016.0
20260507115428 17 260 6.4 0.0 0.00 0.00 0.00 77 1016.0
20260507115127 17 260 6.4 0.0 0.00 0.00 0.00 77 1016.0
20260507114826 17 260 6.4 0.0 0.00 0.00 0.00 77 1016.0
20260507114524 17 260 6.4 0.0 0.00 0.00 0.00 77 1016.0
20260507114218 15 260 6.4 0.0 0.00 0.00 0.00 77 1016.0
20260507113915 17 260 6.4 0.0 0.00 0.00 0.00 77 1016.0
20260507113604 17 260 6.4 0.0 0.00 0.00 0.00 77 1016.0
20260507113257 15 260 6.4 0.0 0.00 0.00 0.00 77 1016.0
20260507112948 15 260 6.4 0.0 0.00 0.00 0.00 77 1016.0
20260507112642 17 260 6.4 0.0 0.00 0.00 0.00 77 1016.0
20260507112332 17 260 6.4 0.0 0.00 0.00 0.00 77 1016.0
20260507112025 14 240 8.0 0.0 0.00 0.00 0.00 73 1016.0
20260507111719 17 260 6.4 0.0 0.00 0.00 0.00 77 1016.0
20260507111416 14 240 8.0 0.0 0.00 0.00 0.00 73 1016.0
20260507111113 14 240 8.0 0.0 0.00 0.00 0.00 73 1016.0
20260507110812 14 240 8.0 0.0 0.00 0.00 0.00 73 1016.0
20260507110501 16 240 8.0 0.0 0.00 0.00 0.00 73 1016.0
20260507110155 16 240 8.0 0.0 0.00 0.00 0.00 73 1016.0
20260507105852 16 240 8.0 0.0 0.00 0.00 0.00 73 1016.0
20260507105551 16 240 8.0 0.0 0.00 0.00 0.00 73 1016.0
20260507105239 18 240 8.0 0.0 0.00 0.00 0.00 73 1016.0
20260507104937 14 240 8.0 0.0 0.00 0.00 0.00 73 1016.0
20260507104625 14 240 8.0 0.0 0.00 0.00 0.00 73 1016.0
20260507104319 14 240 8.0 0.0 0.00 0.00 0.00 73 1016.0
20260507104008 16 240 8.0 0.0 0.00 0.00 0.00 73 1016.0
20260507103706 16 240 8.0 0.0 0.00 0.00 0.00 73 1016.0
20260507103400 16 240 8.0 0.0 0.00 0.00 0.00 73 1016.0
20260507103058 18 240 8.0 0.0 0.00 0.00 0.00 73 1016.0
20260507102757 14 240 8.0 0.0 0.00 0.00 0.00 78 1016.0
20260507102455 18 240 8.0 0.0 0.00 0.00 0.00 73 1016.0
20260507102152 14 240 8.0 0.0 0.00 0.00 0.00 78 1016.0
20260507101850 14 240 8.0 0.0 0.00 0.00 0.00 78 1016.0
20260507101544 16 240 8.0 0.0 0.00 0.00 0.00 78 1016.0
20260507101227 14 240 8.0 0.0 0.00 0.00 0.00 78 1016.0
20260507100926 16 240 8.0 0.0 0.00 0.00 0.00 78 1016.0
20260507100618 16 240 8.0 0.0 0.00 0.00 0.00 78 1016.0
20260507100317 18 280 6.4 0.0 0.00 0.00 0.00 78 1016.0
20260507100010 14 280 6.4 0.0 0.00 0.00 0.00 78 1016.0
20260507095702 16 280 6.4 0.0 0.00 0.00 0.00 78 1016.0
20260507095358 18 280 6.4 0.0 0.00 0.00 0.00 78 1016.0
20260507095046 14 280 6.4 0.0 0.00 0.00 0.00 78 1016.0
20260507094738 16 280 6.4 0.0 0.00 0.00 0.00 78 1016.0
20260507094431 16 280 6.4 0.0 0.00 0.00 0.00 78 1016.0
20260507094125 16 280 6.4 0.0 0.00 0.00 0.00 78 1016.0
20260507093823 18 280 6.4 0.0 0.00 0.00 0.00 78 1016.0
20260507093517 14 280 6.4 0.0 0.00 0.00 0.00 78 1016.0
20260507093215 16 280 6.4 0.0 0.00 0.00 0.00 78 1016.0
20260507092909 18 280 6.4 0.0 0.00 0.00 0.00 78 1016.0
20260507092602 14 280 6.4 0.0 0.00 0.00 0.00 78 1016.0
20260507092251 16 280 6.4 0.0 0.00 0.00 0.00 78 1016.0
20260507091944 18 280 6.4 0.0 0.00 0.00 0.00 78 1016.0
20260507091638 14 280 6.4 0.0 0.00 0.00 0.00 83 1016.0
20260507091331 16 0 4.8 0.0 0.00 0.00 0.00 83 1016.0
20260507091025 18 0 4.8 0.0 0.00 0.00 0.00 83 1016.0
20260507090723 16 0 4.8 0.0 0.00 0.00 0.00 83 1016.0
20260507090416 16 0 4.8 0.0 0.00 0.00 0.00 83 1016.0
20260507090105 18 0 4.8 0.0 0.00 0.00 0.00 83 1016.0
20260507085758 14 0 4.8 0.0 0.00 0.00 0.00 83 1016.0
20260507085451 18 0 4.8 0.0 0.00 0.00 0.00 83 1016.0
20260507085149 14 0 4.8 0.0 0.00 0.00 0.00 83 1016.0
20260507084838 14 0 4.8 0.0 0.00 0.00 0.00 83 1016.0
20260507084531 14 0 4.8 0.0 0.00 0.00 0.00 83 1016.0
20260507084227 16 0 4.8 0.0 0.00 0.00 0.00 83 1016.0
20260507083921 18 0 4.8 0.0 0.00 0.00 0.00 83 1016.0
20260507083619 14 0 4.8 0.0 0.00 0.00 0.00 83 1016.0
20260507083317 16 0 4.8 0.0 0.00 0.00 0.00 83 1016.0
20260507083009 18 0 4.8 0.0 0.00 0.00 0.00 83 1016.0
20260507082703 14 0 4.8 0.0 0.00 0.00 0.00 83 1016.0
20260507082356 16 0 4.8 0.0 0.00 0.00 0.00 83 1016.0
20260507082055 18 0 4.8 0.0 0.00 0.00 0.00 83 1016.0
20260507081748 18 0 4.8 0.0 0.00 0.00 0.00 83 1016.0
20260507081441 14 260 6.4 0.0 0.00 0.00 0.00 83 1016.0
20260507081130 14 260 6.4 0.0 0.00 0.00 0.00 83 1016.0
20260507080825 16 260 6.4 0.0 0.00 0.00 0.00 83 1016.0
20260507080519 16 260 6.4 0.0 0.00 0.00 0.00 83 1016.0
20260507080212 18 260 6.4 0.0 0.00 0.00 0.00 83 1016.0
20260507075905 18 260 6.4 0.0 0.00 0.00 0.00 83 1016.0
20260507075559 14 260 6.4 0.0 0.00 0.00 0.00 83 1016.0
20260507075252 16 260 6.4 0.0 0.00 0.00 0.00 83 1016.0
20260507074946 16 260 6.4 0.0 0.00 0.00 0.00 83 1016.0
20260507074644 18 260 6.4 0.0 0.00 0.00 0.00 83 1016.0
20260507074338 18 260 6.4 0.0 0.00 0.00 0.00 83 1016.0
20260507074031 14 260 6.4 0.0 0.00 0.00 0.00 83 1016.0
20260507073723 18 260 6.4 0.0 0.00 0.00 0.00 83 1016.0
20260507073416 14 260 6.4 0.0 0.00 0.00 0.00 83 1016.0
20260507073110 14 260 6.4 0.0 0.00 0.00 0.00 83 1016.0
20260507072809 16 260 6.4 0.0 0.00 0.00 0.00 83 1016.0
20260507072502 16 260 6.4 0.0 0.00 0.00 0.00 83 1017.0
20260507072156 16 260 6.4 0.0 0.00 0.00 0.00 83 1016.0
20260507071848 18 260 6.4 0.0 0.00 0.00 0.00 83 1017.0
20260507071547 16 260 6.4 0.0 0.00 0.00 0.00 83 1017.0
20260507071240 16 260 6.4 0.0 0.00 0.00 0.00 83 1017.0
20260507070934 18 260 6.4 0.0 0.00 0.00 0.00 83 1017.0
20260507070627 15 220 6.4 0.0 0.00 0.00 0.00 78 1017.0
20260507070321 15 220 6.4 0.0 0.00 0.00 0.00 78 1017.0
20260507070014 15 220 6.4 0.0 0.00 0.00 0.00 78 1017.0
20260507065708 15 220 6.4 0.0 0.00 0.00 0.00 78 1017.0
20260507065406 17 220 6.4 0.0 0.00 0.00 0.00 78 1017.0
20260507065100 19 220 6.4 0.0 0.00 0.00 0.00 78 1017.0
20260507064758 19 220 6.4 0.0 0.00 0.00 0.00 78 1017.0
20260507064452 15 220 6.4 0.0 0.00 0.00 0.00 78 1017.0
20260507064150 15 220 6.4 0.0 0.00 0.00 0.00 78 1017.0
20260507063844 19 220 6.4 0.0 0.00 0.00 0.00 78 1017.0
20260507063536 15 220 6.4 0.0 0.00 0.00 0.00 78 1017.0
20260507063230 17 220 6.4 0.0 0.00 0.00 0.00 78 1017.0
20260507062928 17 220 6.4 0.0 0.00 0.00 0.00 78 1017.0
20260507062623 15 220 6.4 0.0 0.00 0.00 0.00 78 1017.0
20260507062317 17 220 6.4 0.0 0.00 0.00 0.00 78 1017.0
20260507062011 19 220 6.4 0.0 0.00 0.00 0.00 78 1017.0
20260507061704 15 260 6.4 0.0 0.00 0.00 0.00 83 1017.0
20260507061355 15 260 6.4 0.0 0.00 0.00 0.00 83 1017.0
20260507061049 17 260 6.4 0.0 0.00 0.00 0.00 83 1017.0
20260507060748 17 260 6.4 0.0 0.00 0.00 0.00 83 1017.0
20260507060441 17 260 6.4 0.0 0.00 0.00 0.00 83 1017.0
20260507060138 17 260 6.4 0.0 0.00 0.00 0.00 83 1017.0
20260507055832 19 260 6.4 0.0 0.00 0.00 0.00 83 1017.0
20260507055530 15 260 6.4 0.0 0.00 0.00 0.00 83 1017.0
20260507055224 15 260 6.4 0.0 0.00 0.00 0.00 83 1017.0
20260507054917 15 260 6.4 0.0 0.00 0.00 0.00 83 1017.0
20260507054616 15 260 6.4 0.0 0.00 0.00 0.00 83 1017.0
20260507054304 17 260 6.4 0.0 0.00 0.00 0.00 83 1017.0
20260507053638 19 260 6.4 0.0 0.00 0.00 0.00 83 1017.0
20260507053334 19 260 6.4 0.0 0.00 0.00 0.00 83 1017.0
20260507053028 15 260 6.4 0.0 0.00 0.00 0.00 83 1017.0
20260507052416 17 260 6.4 0.0 0.00 0.00 0.00 83 1018.0
20260507052104 17 260 6.4 0.0 0.00 0.00 0.00 83 1018.0
20260507051802 19 260 6.4 0.0 0.00 0.00 0.00 83 1018.0
20260507051455 16 320 9.7 6.4 0.00 0.00 0.00 81 1018.0
20260507045820 16 320 9.7 6.4 0.00 0.00 0.00 82 1018.0
20260507045518 16 320 9.7 6.4 0.00 0.00 0.00 82 1018.0
20260507044850 16 320 9.7 6.4 0.00 0.00 0.00 82 1018.0
20260507044549 16 320 9.7 6.4 0.00 0.00 0.00 82 1018.0
20260507044246 16 320 9.7 6.4 0.00 0.00 0.00 82 1018.0
20260507043943 16 319 9.7 6.4 0.00 0.00 0.00 81 1018.0
20260507043631 16 320 9.7 6.4 0.00 0.00 0.00 82 1018.0
20260507043330 16 319 9.7 6.4 0.00 0.00 0.00 81 1018.0
20260507043023 16 319 9.7 6.4 0.00 0.00 0.00 81 1018.0
20260507042722 16 319 9.7 6.4 0.00 0.00 0.00 81 1018.0
20260507042420 16 319 9.7 6.4 0.00 0.00 0.00 81 1018.0
20260507042109 16 260 4.8 0.0 0.00 0.00 0.00 83 1018.0
20260507041500 16 319 9.7 6.4 0.00 0.00 0.00 81 1018.0
20260507041154 16 260 4.8 0.0 0.00 0.00 0.00 83 1018.0
20260507040847 18 260 4.8 0.0 0.00 0.00 0.00 83 1018.0
20260507040544 18 260 4.8 0.0 0.00 0.00 0.00 83 1018.0
20260507040238 20 260 4.8 0.0 0.00 0.00 0.00 83 1018.0
20260507035926 20 260 4.8 0.0 0.00 0.00 0.00 83 1018.0
20260507035620 20 260 4.8 0.0 0.00 0.00 0.00 83 1018.0
20260507035318 16 260 4.8 0.0 0.00 0.00 0.00 83 1018.0
20260507035012 16 260 4.8 0.0 0.00 0.00 0.00 83 1018.0
20260507034707 16 260 4.8 0.0 0.00 0.00 0.00 83 1018.0
20260507034401 18 260 4.8 0.0 0.00 0.00 0.00 83 1018.0
20260507034058 16 260 4.8 0.0 0.00 0.00 0.00 83 1018.0
20260507033757 18 260 4.8 0.0 0.00 0.00 0.00 83 1017.0
20260507033449 18 260 4.8 0.0 0.00 0.00 0.00 83 1018.0
20260507033143 20 260 4.8 0.0 0.00 0.00 0.00 83 1017.0
20260507032831 18 260 4.8 0.0 0.00 0.00 0.00 83 1017.0
20260507032525 20 260 4.8 0.0 0.00 0.00 0.00 83 1017.0
20260507032218 16 260 4.8 0.0 0.00 0.00 0.00 83 1017.0
20260507031911 20 260 4.8 0.0 0.00 0.00 0.00 83 1017.0
20260507031609 18 260 4.8 0.0 0.00 0.00 0.00 83 1017.0
20260507031303 20 260 4.8 0.0 0.00 0.00 0.00 83 1017.0
20260507031001 17 260 4.8 0.0 0.00 0.00 0.00 88 1017.0
20260507030700 19 0 0.0 0.0 0.00 0.00 0.00 88 1018.0
20260507030359 19 0 0.0 0.0 0.00 0.00 0.00 88 1018.0
20260507030052 17 0 0.0 0.0 0.00 0.00 0.00 88 1018.0
20260507025751 19 0 0.0 0.0 0.00 0.00 0.00 88 1018.0
20260507025444 17 0 0.0 0.0 0.00 0.00 0.00 88 1018.0
20260507025138 19 0 0.0 0.0 0.00 0.00 0.00 88 1018.0
20260507024836 19 0 0.0 0.0 0.00 0.00 0.00 88 1018.0
20260507024535 17 0 0.0 0.0 0.00 0.00 0.00 88 1018.0
20260507024234 19 0 0.0 0.0 0.00 0.00 0.00 88 1016.0
20260507023932 19 0 0.0 0.0 0.00 0.00 0.00 88 1016.0
20260507023631 19 0 0.0 0.0 0.00 0.00 0.00 88 1016.0
20260507023324 19 0 0.0 0.0 0.00 0.00 0.00 88 1016.0
20260507023018 17 0 0.0 0.0 0.00 0.00 0.00 88 1016.0
20260507022715 17 0 0.0 0.0 0.00 0.00 0.00 88 1016.0
20260507021859 19 0 0.0 0.0 0.00 0.00 0.00 88 1016.0
20260507021557 19 0 0.0 0.0 0.00 0.00 0.00 88 1016.0
20260507021254 16 0 0.0 0.0 0.00 0.00 0.00 78 1016.0
20260507020952 18 0 0.0 0.0 0.00 0.00 0.00 78 1016.0
20260507020649 18 0 0.0 0.0 0.00 0.00 0.00 78 1016.0
20260507020346 20 0 0.0 0.0 0.00 0.00 0.00 78 1017.0
20260507020044 20 0 0.0 0.0 0.00 0.00 0.00 78 1017.0
20260507015736 20 0 0.0 0.0 0.00 0.00 0.00 78 1017.0
20260507015432 20 0 0.0 0.0 0.00 0.00 0.00 78 1017.0
20260507014823 16 0 0.0 0.0 0.00 0.00 0.00 78 1017.0
20260507014516 18 0 0.0 0.0 0.00 0.00 0.00 78 1017.0
20260507014215 20 0 0.0 0.0 0.00 0.00 0.00 78 1017.0
20260507013912 16 0 0.0 0.0 0.00 0.00 0.00 78 1017.0
20260507013608 18 0 0.0 0.0 0.00 0.00 0.00 78 1015.0
20260507013306 18 0 0.0 0.0 0.00 0.00 0.00 78 1015.0
20260507013003 18 0 0.0 0.0 0.00 0.00 0.00 78 1015.0
20260507012702 20 0 0.0 0.0 0.00 0.00 0.00 78 1015.0
20260507012401 18 0 0.0 0.0 0.00 0.00 0.00 78 1015.0
20260507012052 18 0 0.0 0.0 0.00 0.00 0.00 78 1015.0
20260507011749 18 0 0.0 0.0 0.00 0.00 0.00 78 1015.0
20260507011447 18 0 0.0 0.0 0.00 0.00 0.00 78 1015.0
20260507011145 20 0 0.0 0.0 0.00 0.00 0.00 78 1015.0
20260507010844 18 0 3.2 0.0 0.00 0.00 0.00 69 1016.0
20260507010542 18 0 3.2 0.0 0.00 0.00 0.00 69 1016.0
20260507010240 22 0 3.2 0.0 0.00 0.00 0.00 69 1015.0
20260507005933 18 0 3.2 0.0 0.00 0.00 0.00 69 1016.0
20260507005632 18 0 3.2 0.0 0.00 0.00 0.00 69 1016.0
20260507005325 20 0 3.2 0.0 0.00 0.00 0.00 69 1015.0
20260507005017 20 0 3.2 0.0 0.00 0.00 0.00 69 1015.0
20260507004715 20 0 3.2 0.0 0.00 0.00 0.00 69 1015.0
20260507004412 22 0 3.2 0.0 0.00 0.00 0.00 69 1015.0
20260507004106 22 0 3.2 0.0 0.00 0.00 0.00 69 1015.0
20260507003805 18 0 3.2 0.0 0.00 0.00 0.00 69 1015.0
20260507003503 18 0 3.2 0.0 0.00 0.00 0.00 69 1015.0
20260507003201 20 0 3.2 0.0 0.00 0.00 0.00 69 1014.0
20260507002854 20 0 3.2 0.0 0.00 0.00 0.00 69 1014.0
20260507002552 20 0 3.2 0.0 0.00 0.00 0.00 69 1014.0
20260507002246 20 0 3.2 0.0 0.00 0.00 0.00 69 1014.0
20260507001942 22 0 3.2 0.0 0.00 0.00 0.00 69 1014.0
20260507001640 20 0 3.2 0.0 0.00 0.00 0.00 69 1014.0
20260507001338 22 0 3.2 0.0 0.00 0.00 0.00 69 1014.0
20260507001037 18 150 6.4 0.0 0.00 0.00 0.00 69 1014.0
20260507000735 18 150 6.4 0.0 0.00 0.00 0.00 69 1014.0
20260507000435 20 150 6.4 0.0 0.00 0.00 0.00 69 1014.0
20260507000132 22 150 6.4 0.0 0.00 0.00 0.00 69 1015.0
20260506235830 22 150 6.4 0.0 0.00 0.00 0.00 69 1015.0
20260506235520 20 150 6.4 0.0 0.00 0.00 0.00 69 1015.0
20260506235214 22 150 6.4 0.0 0.00 0.00 0.00 69 1015.0
20260506234908 18 150 6.4 0.0 0.00 0.00 0.00 69 1014.0
20260506234606 20 150 6.4 0.0 0.00 0.00 0.00 69 1014.0
20260506234305 22 150 6.4 0.0 0.00 0.00 0.00 69 1014.0
20260506233958 18 150 6.4 0.0 0.00 0.00 0.00 69 1014.0
20260506233657 20 150 6.4 0.0 0.00 0.00 0.00 69 1014.0
20260506233355 22 150 6.4 0.0 0.00 0.00 0.00 69 1013.0
20260506233048 22 150 6.4 0.0 0.00 0.00 0.00 69 1014.0
20260506232746 20 160 12.9 0.0 0.00 0.00 0.00 65 1013.0
20260506232445 22 150 6.4 0.0 0.00 0.00 0.00 69 1013.0
20260506232142 20 160 12.9 0.0 0.00 0.00 0.00 65 1013.0
20260506231835 22 160 12.9 0.0 0.00 0.00 0.00 65 1013.0
20260506231533 22 160 12.9 0.0 0.00 0.00 0.00 65 1013.0
20260506231229 22 160 12.9 0.0 0.00 0.00 0.00 65 1013.0
20260506230927 24 160 12.9 0.0 0.00 0.00 0.00 65 1013.0
20260506230314 24 160 12.9 0.0 0.00 0.00 0.00 65 1013.0
20260506225945 24 160 12.9 0.0 0.00 0.00 0.00 65 1013.0
20260506225638 24 160 12.9 0.0 0.00 0.00 0.00 65 1013.0
20260506225334 20 160 12.9 0.0 0.00 0.00 0.00 65 1013.0
20260506225026 24 160 12.9 0.0 0.00 0.00 0.00 65 1013.0
20260506224708 20 160 12.9 0.0 0.00 0.00 0.00 65 1013.0
20260506224402 22 160 12.9 0.0 0.00 0.00 0.00 65 1013.0
20260506224059 22 160 12.9 0.0 0.00 0.00 0.00 65 1013.0
20260506223756 22 160 12.9 0.0 0.00 0.00 0.00 65 1013.0
20260506223446 22 160 12.9 0.0 0.00 0.00 0.00 65 1012.0
20260506223140 24 160 12.9 0.0 0.00 0.00 0.00 65 1012.0
20260506222838 22 160 12.9 0.0 0.00 0.00 0.00 65 1012.0
20260506222534 22 160 12.9 0.0 0.00 0.00 0.00 65 1012.0
20260506222228 24 160 12.9 0.0 0.00 0.00 0.00 65 1012.0
20260506221926 22 160 12.9 0.0 0.00 0.00 0.00 65 1012.0
20260506221623 21 160 12.9 0.0 0.00 0.00 0.00 61 1012.0
20260506221320 24 160 12.9 0.0 0.00 0.00 0.00 65 1012.0
20260506221019 24 160 12.9 0.0 0.00 0.00 0.00 65 1012.0
20260506220717 21 160 12.9 0.0 0.00 0.00 0.00 61 1012.0
20260506220409 23 160 14.5 0.0 0.00 0.00 0.00 61 1012.0
20260506220107 23 160 14.5 0.0 0.00 0.00 0.00 61 1012.0
20260506215804 21 160 14.5 0.0 0.00 0.00 0.00 61 1012.0
20260506215502 23 160 14.5 0.0 0.00 0.00 0.00 61 1012.0
20260506215200 25 160 14.5 0.0 0.00 0.00 0.00 61 1012.0
20260506214853 21 160 14.5 0.0 0.00 0.00 0.00 61 1012.0
20260506214546 21 160 14.5 0.0 0.00 0.00 0.00 61 1012.0
20260506214245 23 160 14.5 0.0 0.00 0.00 0.00 61 1012.0
20260506213939 21 160 14.5 0.0 0.00 0.00 0.00 61 1012.0
20260506213637 23 160 14.5 0.0 0.00 0.00 0.00 61 1012.0
20260506213331 23 160 14.5 0.0 0.00 0.00 0.00 61 1012.0
20260506213023 25 160 14.5 0.0 0.00 0.00 0.00 61 1012.0
20260506212721 21 160 14.5 0.0 0.00 0.00 0.00 61 1012.0
20260506212419 23 160 14.5 0.0 0.00 0.00 0.00 61 1012.0
20260506212113 21 160 14.5 0.0 0.00 0.00 0.00 61 1012.0
20260506211811 23 160 14.5 0.0 0.00 0.00 0.00 61 1012.0
20260506211508 23 160 14.5 0.0 0.00 0.00 0.00 61 1012.0
20260506211200 25 160 14.5 0.0 0.00 0.00 0.00 61 1012.0
20260506210857 25 160 14.5 0.0 0.00 0.00 0.00 61 1012.0
20260506210550 22 150 14.5 0.0 0.00 0.00 0.00 58 1013.0
20260506210248 24 150 14.5 0.0 0.00 0.00 0.00 58 1013.0
20260506205939 22 150 14.5 0.0 0.00 0.00 0.00 58 1013.0
20260506205633 24 150 14.5 0.0 0.00 0.00 0.00 58 1013.0
20260506205330 24 150 14.5 0.0 0.00 0.00 0.00 58 1013.0
20260506205022 26 150 14.5 0.0 0.00 0.00 0.00 58 1013.0
20260506204714 26 150 14.5 0.0 0.00 0.00 0.00 58 1013.0
20260506204413 22 150 14.5 0.0 0.00 0.00 0.00 58 1013.0
20260506204112 22 150 14.5 0.0 0.00 0.00 0.00 58 1013.0
20260506203809 22 150 14.5 0.0 0.00 0.00 0.00 58 1013.0
20260506203507 22 150 14.5 0.0 0.00 0.00 0.00 58 1013.0
20260506203200 24 150 14.5 0.0 0.00 0.00 0.00 58 1013.0
20260506202858 24 150 14.5 0.0 0.00 0.00 0.00 58 1013.0
20260506202556 26 150 14.5 0.0 0.00 0.00 0.00 58 1013.0
20260506202249 26 150 14.5 0.0 0.00 0.00 0.00 58 1013.0
20260506201943 22 150 14.5 0.0 0.00 0.00 0.00 58 1013.0
20260506201635 24 150 14.5 0.0 0.00 0.00 0.00 58 1012.0
20260506201334 24 150 14.5 0.0 0.00 0.00 0.00 58 1012.0
20260506201029 26 150 14.5 0.0 0.00 0.00 0.00 58 1012.0
20260506200718 22 160 12.9 0.0 0.00 0.00 0.00 58 1013.0
20260506200411 26 160 12.9 0.0 0.00 0.00 0.00 58 1012.0
20260506200105 22 160 12.9 0.0 0.00 0.00 0.00 58 1013.0
20260506195758 22 160 12.9 0.0 0.00 0.00 0.00 58 1013.0
20260506195452 24 160 12.9 0.0 0.00 0.00 0.00 58 1013.0
20260506195150 26 160 12.9 0.0 0.00 0.00 0.00 58 1013.0
20260506194845 26 160 12.9 0.0 0.00 0.00 0.00 58 1013.0
20260506194538 22 160 12.9 0.0 0.00 0.00 0.00 58 1013.0
20260506194227 26 160 12.9 0.0 0.00 0.00 0.00 58 1013.0
20260506193926 22 160 12.9 0.0 0.00 0.00 0.00 58 1013.0
20260506193619 24 160 12.9 0.0 0.00 0.00 0.00 58 1013.0
20260506193313 26 160 12.9 0.0 0.00 0.00 0.00 58 1013.0
20260506193006 22 160 12.9 0.0 0.00 0.00 0.00 58 1013.0
20260506192704 24 160 12.9 0.0 0.00 0.00 0.00 58 1013.0
20260506192358 24 160 12.9 0.0 0.00 0.00 0.00 58 1013.0
20260506192052 26 160 12.9 0.0 0.00 0.00 0.00 58 1013.0
20260506191745 26 160 12.9 0.0 0.00 0.00 0.00 58 1013.0
20260506191439 23 160 12.9 0.0 0.00 0.00 0.00 61 1013.0
20260506191132 23 160 12.9 0.0 0.00 0.00 0.00 61 1013.0
20260506190830 25 150 12.9 0.0 0.00 0.00 0.00 61 1013.0
20260506190524 25 150 12.9 0.0 0.00 0.00 0.00 61 1013.0
20260506190217 23 150 12.9 0.0 0.00 0.00 0.00 61 1013.0
20260506185910 23 150 12.9 0.0 0.00 0.00 0.00 61 1013.0
20260506185604 23 150 12.9 0.0 0.00 0.00 0.00 61 1013.0
20260506185256 25 150 12.9 0.0 0.00 0.00 0.00 61 1013.0
20260506184944 23 150 12.9 0.0 0.00 0.00 0.00 61 1013.0
20260506184637 25 150 12.9 0.0 0.00 0.00 0.00 61 1013.0
20260506184325 25 150 12.9 0.0 0.00 0.00 0.00 61 1013.0
20260506183710 23 150 12.9 0.0 0.00 0.00 0.00 61 1013.0
20260506183403 25 150 12.9 0.0 0.00 0.00 0.00 61 1013.0
20260506183102 23 150 12.9 0.0 0.00 0.00 0.00 61 1014.0
20260506182755 23 150 12.9 0.0 0.00 0.00 0.00 61 1014.0
20260506182453 25 150 12.9 0.0 0.00 0.00 0.00 61 1014.0
20260506182152 23 150 12.9 0.0 0.00 0.00 0.00 61 1014.0
20260506181850 25 150 12.9 0.0 0.00 0.00 0.00 61 1014.0
20260506181539 23 150 12.9 0.0 0.00 0.00 0.00 61 1014.0
20260506181232 25 150 12.9 0.0 0.00 0.00 0.00 61 1014.0
20260506180929 22 150 12.9 0.0 0.00 0.00 0.00 65 1014.0
20260506180628 22 150 12.9 0.0 0.00 0.00 0.00 65 1014.0
20260506180318 24 160 9.7 0.0 0.00 0.00 0.00 65 1014.0
20260506180011 22 160 9.7 0.0 0.00 0.00 0.00 65 1014.0
20260506175705 24 160 9.7 0.0 0.00 0.00 0.00 65 1014.0
20260506175353 24 160 9.7 0.0 0.00 0.00 0.00 65 1014.0
20260506175047 22 160 9.7 0.0 0.00 0.00 0.00 65 1014.0
20260506174745 24 160 9.7 0.0 0.00 0.00 0.00 65 1014.0
20260506174432 24 160 9.7 0.0 0.00 0.00 0.00 65 1014.0
20260506174130 24 160 9.7 0.0 0.00 0.00 0.00 65 1014.0
20260506173824 22 160 9.7 0.0 0.00 0.00 0.00 65 1014.0
20260506173521 22 160 9.7 0.0 0.00 0.00 0.00 65 1014.0
20260506173214 22 160 9.7 0.0 0.00 0.00 0.00 65 1014.0
20260506172910 24 160 9.7 0.0 0.00 0.00 0.00 65 1016.0
20260506172604 24 160 9.7 0.0 0.00 0.00 0.00 65 1016.0
20260506172257 24 160 9.7 0.0 0.00 0.00 0.00 65 1016.0
20260506171950 22 160 9.7 0.0 0.00 0.00 0.00 65 1016.0
20260506171644 24 160 9.7 0.0 0.00 0.00 0.00 65 1015.0
20260506171337 24 160 9.7 0.0 0.00 0.00 0.00 65 1015.0
20260506171030 24 160 9.7 0.0 0.00 0.00 0.00 65 1015.0
20260506170723 24 160 9.7 0.0 0.00 0.00 0.00 65 1015.0
20260506170416 22 220 4.8 0.0 0.00 0.00 0.00 65 1015.0
20260506170110 24 220 4.8 0.0 0.00 0.00 0.00 65 1015.0
20260506165804 22 220 4.8 0.0 0.00 0.00 0.00 65 1015.0
20260506165501 22 220 4.8 0.0 0.00 0.00 0.00 65 1015.0
20260506165150 24 220 4.8 0.0 0.00 0.00 0.00 65 1015.0
20260506164846 22 220 4.8 0.0 0.00 0.00 0.00 65 1015.0
20260506164536 22 220 4.8 0.0 0.00 0.00 0.00 65 1015.0
20260506164230 24 220 4.8 0.0 0.00 0.00 0.00 65 1015.0
20260506163924 24 220 4.8 0.0 0.00 0.00 0.00 65 1015.0
20260506163622 24 220 4.8 0.0 0.00 0.00 0.00 65 1015.0
20260506163319 22 220 4.8 0.0 0.00 0.00 0.00 65 1015.0
20260506163018 24 220 4.8 0.0 0.00 0.00 0.00 65 1017.0
20260506162709 24 220 4.8 0.0 0.00 0.00 0.00 65 1017.0
20260506162403 22 220 4.8 0.0 0.00 0.00 0.00 65 1016.0
20260506162051 22 220 4.8 0.0 0.00 0.00 0.00 65 1016.0
20260506161749 24 220 4.8 0.0 0.00 0.00 0.00 65 1016.0
20260506161440 22 220 4.8 0.0 0.00 0.00 0.00 65 1016.0
20260506161135 22 220 4.8 0.0 0.00 0.00 0.00 65 1016.0
20260506160823 24 220 4.8 0.0 0.00 0.00 0.00 65 1016.0
20260506160522 21 160 8.0 0.0 0.00 0.00 0.00 78 1016.0
20260506160215 21 160 8.0 0.0 0.00 0.00 0.00 78 1016.0
20260506155913 21 160 8.0 0.0 0.00 0.00 0.00 78 1016.0
20260506155612 21 160 8.0 0.0 0.00 0.00 0.00 78 1016.0
20260506155310 21 160 8.0 0.0 0.00 0.00 0.00 78 1016.0
20260506155001 21 160 8.0 0.0 0.00 0.00 0.00 78 1016.0
20260506154700 21 160 8.0 0.0 0.00 0.00 0.00 78 1016.0
20260506154350 21 160 8.0 0.0 0.00 0.00 0.00 78 1016.0
20260506154044 21 160 8.0 0.0 0.00 0.00 0.00 78 1016.0
20260506153738 21 160 8.0 0.0 0.00 0.00 0.00 78 1016.0
20260506153435 21 160 8.0 0.0 0.00 0.00 0.00 78 1016.0
20260506153129 21 160 8.0 0.0 0.00 0.00 0.00 78 1017.0
20260506152821 21 160 8.0 0.0 0.00 0.00 0.00 78 1017.0
20260506152515 21 160 8.0 0.0 0.00 0.00 0.00 78 1017.0
20260506152205 21 160 8.0 0.0 0.00 0.00 0.00 78 1017.0
20260506151856 21 160 8.0 0.0 0.00 0.00 0.00 78 1017.0
20260506151555 20 160 8.0 0.0 0.00 0.00 0.00 69 1017.0
20260506151253 20 160 8.0 0.0 0.00 0.00 0.00 69 1017.0
20260506150946 20 160 8.0 0.0 0.00 0.00 0.00 69 1017.0
20260506150640 20 160 8.0 0.0 0.00 0.00 0.00 69 1017.0
20260506150337 22 0 3.2 0.0 0.00 0.00 0.00 69 1017.0
20260506150031 20 0 3.2 0.0 0.00 0.00 0.00 69 1017.0
20260506145719 22 0 3.2 0.0 0.00 0.00 0.00 69 1017.0
20260506145414 22 0 3.2 0.0 0.00 0.00 0.00 69 1017.0
20260506145108 20 0 3.2 0.0 0.00 0.00 0.00 69 1017.0
20260506144807 20 0 3.2 0.0 0.00 0.00 0.00 69 1017.0
20260506144506 22 0 3.2 0.0 0.00 0.00 0.00 69 1017.0
20260506144156 20 0 3.2 0.0 0.00 0.00 0.00 69 1017.0
20260506143852 20 0 3.2 0.0 0.00 0.00 0.00 69 1017.0
20260506143545 22 0 3.2 0.0 0.00 0.00 0.00 69 1017.0
20260506143233 22 0 3.2 0.0 0.00 0.00 0.00 69 1017.0
20260506142932 22 0 3.2 0.0 0.00 0.00 0.00 69 1017.0
20260506142630 20 0 3.2 0.0 0.00 0.00 0.00 69 1017.0
20260506142323 22 0 3.2 0.0 0.00 0.00 0.00 69 1017.0
20260506142017 19 0 3.2 0.0 0.00 0.00 0.00 78 1017.0
20260506141709 19 0 3.2 0.0 0.00 0.00 0.00 78 1017.0
20260506141401 22 0 3.2 0.0 0.00 0.00 0.00 69 1017.0
20260506141054 19 0 3.2 0.0 0.00 0.00 0.00 78 1017.0